Location: Newark
(26.7031°N, 81.8844°W)
Time: 02:15:12
(UTC+00:00)

Hubble Space Telescope - Visible Passes

Search period start: 29 January 2020 00:00
Search period end: 08 February 2020 00:00
Orbit: 536 x 540 km, 28.5° (Epoch: 28 January)

Date Brightness Start Highest point End Pass type
(mag) Time Alt. Az. Time Alt. Az. Time Alt. Az.
29 Jan 2.4 10:29:39 24° S 10:30:49 28° SSE 10:34:23 10° E visible
30 Jan 1.9 10:20:06 35° SSE 10:20:09 35° SSE 10:23:56 10° E visible
31 Jan 2.1 10:10:26 37° ESE 10:10:26 37° ESE 10:13:26 10° E visible
31 Jan 0.8 11:46:31 10° W 11:50:38 78° N 11:54:45 10° E visible
01 Feb 2.6 10:00:39 30° E 10:00:39 30° E 10:02:54 10° E visible
01 Feb 0.8 11:35:59 10° W 11:40:02 72° N 11:44:10 10° E visible
02 Feb 3.1 09:50:46 22° E 09:50:46 22° E 09:52:20 10° E visible
02 Feb 0.8 11:26:07 15° W 11:29:28 68° N 11:33:34 10° E visible
03 Feb 3.6 09:40:51 16° E 09:40:51 16° E 09:41:45 10° E visible
03 Feb 0.8 11:16:11 20° W 11:18:53 67° N 11:23:00 10° E visible
04 Feb 4.0 09:30:52 12° E 09:30:52 12° E 09:31:09 10° E visible
04 Feb 0.8 11:06:12 27° WNW 11:08:19 67° N 11:12:25 10° E visible
05 Feb 0.8 10:56:12 36° WNW 10:57:44 70° N 11:01:51 10° E visible
06 Feb 0.7 10:46:11 50° WNW 10:47:10 74° N 10:51:17 10° E visible
07 Feb 0.6 10:36:11 70° NW 10:36:35 81° N 10:40:42 10° E visible
